Back to catalog

FENGYUN 1C DEB

AliveSSO
NORAD 30020·DEBRIS·🇨🇳 China

Launched May 10, 1999 from Taiyuan Satellite Launch Center

Loading…

Next Passes (next 24 hours)

TLE

FreshSource: Space-Track

Epoch: Sep 14, 2026, 11:28 UTC

1 30020U 99025MV  26257.47809485  .00000632  00000-0  36165-3 0  9992
2 30020  98.8521 259.5754 0182916  18.8736 133.1575 14.04880118  5271

Track FENGYUN 1C DEB in real time with AllMySat

Download on the App Store